Hickam AFB, HI

1:34 PM HST on February 24, 2017 (GMT -1000)
Honolulu International

Weather History for PHNL - August, 2013

Change the Weather History Date:

Thursday, August 1, 2013

  Actual Average Record
Temperature  
Mean Temperature 81 °F 82 °F  
Max Temperature 87 °F 88 °F 91 °F (2003)
Min Temperature 74 °F 75 °F 70 °F (1966)
Degree Days  
Heating Degree Days 0 0  
Month to date heating degree days 0 0  
Since 1 June heating degree days 0 0  
Since 1 July heating degree days 0 0  
Cooling Degree Days 16 17  
Month to date cooling degree days 16 17  
Year to date cooling degree days 2368 2477  
Since 1 June cooling degree days 908 975  
Growing Degree Days 30 (Base 50)    
Moisture  
Dew Point 65 °F    
Average Humidity 62    
Maximum Humidity 79    
Minimum Humidity 45    
Precipitation  
Precipitation T in 0.02 in 0.13 in (1958)
Month to date precipitation T 0.02  
Year to date precipitation 8.98 8.36  
Snow  
Snow 0.00 in - - ()
Month to date snowfall 0.0  
Since 1 June snowfall 0.0  
Since 1 July snowfall 0.0  
Snow Depth 0.00 in    
Sea Level Pressure  
Sea Level Pressure 30.07 in    
Wind  
Wind Speed 15 mph (ENE)    
Max Wind Speed 24 mph    
Max Gust Speed 32 mph    
Visibility 10 miles    
Events Rain    
T = Trace of Precipitation, MM = Missing Value Source: NWS Daily Summary

Daily Weather History Graph

Daily Weather History Graph

Search for Another Location

Airport or City:

Trip Planner

Search our weather history database for the weather conditions in past years. The results will help you decide how hot, cold, wet, or windy it might be!

Date:

Astronomy

Aug. 01, 2013 Rise Set
Actual Time 6:05 AM HST 7:10 PM HST
Civil Twilight 5:41 AM HST 7:34 PM HST
Nautical Twilight 5:13 AM HST 8:02 PM HST
Astronomical Twilight 4:44 AM HST 8:30 PM HST
Moon 1:53 AM HST (8/1) 3:23 PM HST (8/1)
Length of Visible Light 13h 52m
Length of Day
13h 05m
Waning Crescent, 21% of the Moon is Illuminated
Aug 1
Waning Crescent
Aug 6
New
Aug 14
First Quarter
Aug 20
Full
Aug 27
Last Quarter

Hourly Weather History & Observations

Time (HST) Temp. Heat Index Dew Point Humidity Pressure Visibility Wind Dir Wind Speed Gust Speed Precip Events Conditions
12:53 AM 77.0 °F - 64.9 °F 66% 30.10 in 10.0 mi ENE 15.0 mph - N/A   Mostly Cloudy
1:53 AM 77.0 °F - 64.9 °F 66% 30.09 in 10.0 mi ENE 15.0 mph - N/A   Scattered Clouds
2:53 AM 77.0 °F - 64.9 °F 66% 30.08 in 10.0 mi ENE 11.5 mph - N/A   Scattered Clouds
3:53 AM 77.0 °F - 66.0 °F 69% 30.07 in 10.0 mi ENE 16.1 mph - N/A   Scattered Clouds
4:53 AM 73.9 °F - 66.0 °F 76% 30.08 in 10.0 mi NE 5.8 mph - N/A   Mostly Cloudy
5:53 AM 75.9 °F - 66.0 °F 71% 30.09 in 10.0 mi ENE 17.3 mph 24.2 mph N/A   Mostly Cloudy
6:53 AM 77.0 °F - 64.9 °F 66% 30.09 in 10.0 mi ENE 11.5 mph - N/A   Scattered Clouds
7:53 AM 79.0 °F - 64.9 °F 62% 30.09 in 10.0 mi ENE 16.1 mph 25.3 mph N/A   Scattered Clouds
8:53 AM 79.0 °F - 66.9 °F 66% 30.09 in 10.0 mi ENE 13.8 mph 21.9 mph 0.00 in Rain Light Rain
9:53 AM 80.1 °F 82.1 °F 66.0 °F 62% 30.08 in 10.0 mi ENE 16.1 mph 21.9 mph 0.00 in   Mostly Cloudy
10:53 AM 82.0 °F 83.8 °F 64.9 °F 56% 30.08 in 10.0 mi NE 11.5 mph - N/A   Mostly Cloudy
11:53 AM 82.9 °F 84.0 °F 63.0 °F 51% 30.07 in 10.0 mi East 17.3 mph 28.8 mph N/A   Mostly Cloudy
12:53 PM 84.9 °F 85.9 °F 63.0 °F 48% 30.06 in 10.0 mi East 17.3 mph 26.5 mph N/A   Mostly Cloudy
1:53 PM 86.0 °F 86.8 °F 63.0 °F 46% 30.05 in 10.0 mi ENE 16.1 mph 25.3 mph N/A   Scattered Clouds
2:53 PM 84.9 °F 85.4 °F 62.1 °F 46% 30.03 in 10.0 mi ENE 17.3 mph 26.5 mph N/A   Scattered Clouds
3:53 PM 84.0 °F 85.4 °F 64.0 °F 51% 30.02 in 10.0 mi NE 17.3 mph 28.8 mph N/A   Scattered Clouds
4:53 PM 82.9 °F 84.4 °F 64.0 °F 53% 30.02 in 10.0 mi ENE 16.1 mph - N/A   Scattered Clouds
5:53 PM 81.0 °F 82.7 °F 64.9 °F 58% 30.03 in 10.0 mi NE 19.6 mph - N/A   Mostly Cloudy
6:53 PM 79.0 °F - 64.9 °F 62% 30.04 in 10.0 mi ENE 16.1 mph 23.0 mph N/A   Mostly Cloudy
7:53 PM 79.0 °F - 64.0 °F 60% 30.05 in 10.0 mi ENE 17.3 mph - N/A   Partly Cloudy
8:53 PM 78.1 °F - 64.9 °F 64% 30.06 in 10.0 mi ENE 18.4 mph 25.3 mph N/A   Scattered Clouds
9:53 PM 77.0 °F - 66.0 °F 69% 30.08 in 10.0 mi ENE 13.8 mph - N/A   Partly Cloudy
10:53 PM 77.0 °F - 66.0 °F 69% 30.07 in 10.0 mi NE 12.7 mph - N/A   Partly Cloudy
11:53 PM 77.0 °F - 66.0 °F 69% 30.07 in 10.0 mi ENE 12.7 mph - N/A   Partly Cloudy